STARLINK-4550 (53570 NORAD) Tracking and Keplerian Element Data

This shows tracking and keplerian element data for the satellite.

Feedback or suggestion? Click here.




ElementValue
Catalog53570
NameSTARLINK-4550
Epoch Orbit1461
Epoch Day325.25001157
Epoch Year2022
RAAN60.9627
Inclination53.2155
Eccentricity0.0001509
Argument of Perigee60.5179
Mean Anonmoly60.6199
Mean Motion15.08826539
Decay Rate0.00036366
L11 53570U 22101AV 22325.25001157 .00036366 00000+0 22921-2 0 9992
L22 53570 53.2155 60.9627 0001509 60.5179 60.6199 15.08826539 14616



Live tracking and technical data element details for STARLINK-4550 (NORAD 53570). STARLINK-4550 can be tracked NOW for your location showing map with azimuth and elevation plus other details from your city location.







IsCatalogInMostPopularTable: catalog: 53570, numindb: 4
Update: records affected: 1



GetName: 53570 STARLINK-4550

Hit Count: updated at: Thu, 08 Dec 2022 09:21:13 GMT